Location: Rounton
(54.4000°N, 1.3500°W)
Time: 07:54:42
(UTC+00:00)

Vanguard 1 Rocket - Pass Details

Date: 09 December 2021
Orbit: 651 x 4224 km, 34.3° (Epoch: 19 January)

Event Time Altitude Azimuth Distance (km) Brightness Sun altitude
Rises 04:59:22 0° 255° (WSW) 5,087 - -26.8°
Reaches altitude 10° 05:02:40 10° 245° (WSW) 4,512 - -26.3°
Exits shadow 05:06:10 20° 231° (SW) 4,130 10.3 -25.8°
Maximum altitude 05:13:51 32° 189° (S) 4,239 10.7 -24.7°
Drops below altitude 10° 05:31:25 10° 138° (SE) 7,082 12.6 -22.2°
Sets 05:38:34 0° 130° (SE) 8,374 13.3 -21.1°
